sat.trackr.live / text

‹ back to catalog

STARLINK-37823

NORAD 69427 · 2026-126H

PAYLOAD ACTIVE UNKNOWN

§ Identity

Operator
Country
US
Launch date
2026-06-07
Launch site
AFWTR
Launch vehicle
Mass (kg)
RCS (m²)

Purposes: comms

External: N2YO · Heavens-Above · Gunter

§ Orbital elements

Epoch: 2026-09-20T00:48:15.736608Z

Period
93.91 min
Inclination
97.2834°
Eccentricity
0.0001431
Mean motion
15.33451433 rev/d
Perigee alt
464.5 km
Apogee alt
466.5 km
Semi-major
6,843.7 km
B*
2.6114e-4
RAAN
124.2845°
Arg perigee
94.1971°
Mean anomaly
265.9436°
Rev number
1,745

§ Raw data

STARLINK-378231 69427U 26126H   26263.03351547  .00008366  00000+0  26114-3 0  99912 69427  97.2834 124.2845 0001431  94.1971 265.9436 15.33451433 17453

JSON: /api/v1/satellites/69427 · /tle

For live sub-satellite position, see the globe view (requires WebGL).

§ Visibility from observer

Set your observer location to see the next 7 days of passes ≥ 10°. The values pass through the URL so the page stays shareable.

No JS? Fill the form by hand. The geolocation button needs JavaScript.